Hourly Data Report for October 16, 2016

All times are specified in Local Standard Time (LST). Add 1 hour to adjust for Daylight Saving Time where and when it is observed.

TORONTO INTL A
ONTARIO

43°40'36.000" N
79°37'50.000" W
173.40 m
6158731
71624
YYZ

Download Data

Hourly Data (October 2016)
Hourly Data Report for October 16, 2016
Temp Definition
°C
Dew Point Temp Definition
°C
Rel Hum Definition
%
Wind Dir Definition
10's deg

Wind Spd Definition
km/h
Visibility Definition
km
Stn Press Definition
kPa
Hmdx Definition


Wind Chill Definition


Weather Definition


TIME
00:00 Legend Double Dagger 18.4 14.7 79 21 10 24.1 99.50     LegendNANA
01:00 Legend Double Dagger 19.2 14.9 76 21 21 24.1 99.46     Cloudy
02:00 Legend Double Dagger 18.8 14.9 78 21 22 24.1 99.43     LegendNANA
03:00 Legend Double Dagger 19.0 15.1 78 23 18 24.1 99.36     LegendNANA
04:00 Legend Double Dagger 19.0 15.3 79 23 18 24.1 99.34     Cloudy
05:00 Legend Double Dagger 18.9 15.6 81 23 15 24.1 99.34     LegendNANA
06:00 Legend Double Dagger 18.8 15.7 82 22 18 24.1 99.30     LegendNANA
07:00 Legend Double Dagger 19.0 15.7 81 24 23 24.1 99.30     Mostly Cloudy
08:00 Legend Double Dagger 18.0 16.4 90 23 19 24.1 99.32     Rain
09:00 Legend Double Dagger 18.6 16.6 88 23 16 24.1 99.31     LegendNANA
10:00 Legend Double Dagger 20.2 16.9 81 25 27 24.1 99.30 25   Cloudy
11:00 Legend Double Dagger 20.5 16.6 78 25 21 24.1 99.29 26   LegendNANA
12:00 Legend Double Dagger 20.0 16.7 81 23 21 19.3 99.22 25   Rain
13:00 Legend Double Dagger 19.3 17.6 90 26 11 19.3 99.20     Rain
14:00 Legend Double Dagger 19.7 17.5 87 26 14 24.1 99.18     LegendNANA
15:00 Legend Double Dagger 20.1 16.8 81 27 19 24.1 99.21 25   LegendNANA
16:00 Legend Double Dagger 20.4 15.9 75 27 18 24.1 99.20 25   Mostly Cloudy
17:00 Legend Double Dagger 20.1 14.8 71 28 26 24.1 99.24     LegendNANA
18:00 Legend Double Dagger 19.3 15.0 76 26 20 24.1 99.24     LegendNANA
19:00 Legend Double Dagger 18.3 15.2 82 24 9 24.1 99.30     Mostly Cloudy
20:00 Legend Double Dagger 18.2 15.1 82 25 5 24.1 99.30     LegendNANA
21:00 Legend Double Dagger 17.7 15.4 86 25 5 24.1 99.35     LegendNANA
22:00 Legend Double Dagger 17.4 15.8 90 27 8 24.1 99.36     Cloudy
23:00 Legend Double Dagger 17.8 15.6 87 36 9 24.1 99.33     LegendNANA

Notes on Data Quality.

Legend

  • E = Estimated
  • M = Missing
  • NA = Not Available
  • ‡ = Partner data that is not subject to review by the National Climate Archives
Date modified: